GW5184 Weather Reports


time (UTC)temp
F
wind
direction
speed
knots
gust
knots
rain 1hr
in
rain 24hr
in
rain mn
in
humidity
%
barometer
mb
20260504151056 78 31 0.0 0.0 0.00 0.01 0.01 91 1011.0
20260504150554 78 31 0.0 0.0 0.00 0.01 0.01 91 1010.7
20260504141020 78 18 0.0 0.0 0.00 0.01 0.01 93 1010.8
20260504140516 78 17 0.0 0.0 0.00 0.01 0.01 93 1011.0
20260504130441 78 170 0.0 0.0 0.00 0.01 0.01 92 1010.2
20260504110328 79 170 0.0 0.0 0.00 0.01 0.01 90 1009.5
20260504100245 80 174 0.0 0.0 0.00 0.01 0.01 86 1008.9
20260504081639 81 209 0.0 0.0 0.00 0.01 0.01 82 1008.5
20260504081135 81 27 0.0 0.0 0.00 0.01 0.01 84 1008.3
20260504080631 81 27 0.0 0.0 0.00 0.01 0.01 84 1008.2
20260504080128 81 26 0.0 0.0 0.00 0.01 0.01 84 1008.3
20260504050444 81 174 0.0 0.0 0.00 0.01 0.01 85 1010.8
20260504045941 81 38 0.0 0.9 0.00 0.01 0.01 86 1010.9
20260504045437 81 198 0.0 0.0 0.00 0.01 0.01 88 1010.9
20260504044933 81 6 0.0 0.0 0.00 0.01 0.01 88 1011.1
20260504044431 81 83 0.0 0.0 0.00 0.01 0.01 88 1011.3
20260504043928 81 145 0.0 0.0 0.00 0.01 0.01 88 1011.2
20260504043425 81 32 0.0 0.0 0.00 0.01 0.01 89 1011.3
20260504042923 81 279 0.9 1.7 0.00 0.01 0.01 89 1011.1
20260504042419 81 74 0.9 0.9 0.00 0.01 0.01 89 1011.3
20260504041916 81 298 0.0 1.7 0.00 0.01 0.01 89 1011.2
20260504041412 81 239 0.0 0.9 0.00 0.01 0.01 91 1011.2
20260504040908 81 212 0.0 0.0 0.00 0.01 0.01 92 1011.5
20260504040406 81 212 0.0 0.0 0.00 0.01 0.01 92 1011.7
20260504035901 81 212 0.0 0.0 0.00 0.01 0.01 92 1011.8
20260504035359 80 213 0.0 0.0 0.00 0.01 0.01 92 1011.7
20260504034855 80 56 0.0 0.0 0.00 0.01 0.01 93 1011.8
20260504034353 80 56 0.0 0.9 0.00 0.01 0.01 93 1011.9
20260504033850 80 60 0.0 0.0 0.00 0.01 0.01 93 1011.6
20260504033348 80 60 0.0 0.0 0.00 0.01 0.01 93 1011.8
20260504032844 80 60 0.0 0.0 0.00 0.01 0.01 92 1012.0
20260504032341 80 60 0.0 0.0 0.00 0.01 0.01 92 1011.9
20260504031838 80 65 0.0 0.0 0.00 0.01 0.01 92 1011.8
20260504031335 80 176 0.0 0.0 0.00 0.01 0.01 92 1011.8
20260504030831 80 176 0.0 0.0 0.00 0.01 0.01 92 1011.7
20260504030329 80 176 0.0 0.0 0.00 0.01 0.01 91 1011.5
20260504025825 80 176 0.0 0.0 0.00 0.01 0.01 91 1011.9
20260504025322 81 156 0.0 0.0 0.00 0.01 0.01 91 1011.9
20260504024819 81 148 0.0 0.0 0.00 0.01 0.01 90 1011.6
20260504024315 81 147 0.0 0.0 0.00 0.01 0.01 88 1011.9
20260504023812 81 146 0.9 0.9 0.00 0.01 0.01 88 1012.0
20260504023309 81 138 0.0 1.7 0.00 0.01 0.01 88 1012.0
20260504022805 81 135 1.7 1.7 0.00 0.01 0.01 91 1011.8
20260504022301 81 310 0.0 0.0 0.00 0.01 0.01 91 1011.9
20260504021758 82 310 0.0 0.0 0.00 0.01 0.01 91 1011.6
20260504021256 82 310 0.0 0.0 0.00 0.01 0.01 90 1011.9
20260504020752 82 310 0.0 0.0 0.07 0.01 0.01 90 1012.0
20260504020249 83 347 0.0 0.9 0.07 0.01 0.01 88 1011.9
20260504015745 83 49 0.0 0.0 0.00 0.00 0.00 88 1011.6
20260504015242 84 202 0.0 0.0 0.00 0.00 0.00 87 1011.8
20260504014737 84 203 0.0 0.0 0.00 0.00 0.00 86 1011.8
20260504014234 85 203 0.0 0.0 0.00 0.00 0.00 85 1011.8
20260504013732 85 150 0.0 0.0 0.00 0.00 0.00 80 1012.0
20260504013229 85 159 0.0 0.0 0.00 0.00 0.00 78 1012.0
20260504012725 86 140 1.7 1.7 0.00 0.00 0.00 79 1011.8
20260504012224 87 26 0.0 0.0 0.00 0.00 0.00 77 1012.1
20260504011720 87 150 0.0 0.9 0.00 0.00 0.00 76 1011.9
20260504011217 87 153 0.0 0.0 0.00 0.00 0.00 76 1011.7
20260504010713 86 161 0.0 1.7 0.00 0.00 0.00 76 1011.7
20260504010209 86 148 0.9 2.6 0.00 0.00 0.00 78 1011.5
20260504005705 85 126 0.0 0.0 0.00 0.00 0.00 80 1011.7
20260504005203 85 320 0.0 0.9 0.00 0.00 0.00 82 1011.7
20260504004700 85 177 0.0 0.0 0.00 0.00 0.00 80 1011.6
20260504004157 85 156 0.0 0.0 0.00 0.00 0.00 83 1011.5
20260504003653 85 157 0.0 0.0 0.00 0.00 0.00 86 1011.2
20260504003150 85 264 0.0 0.0 0.00 0.00 0.00 84 1011.1
20260504002647 84 218 0.0 0.0 0.00 0.00 0.00 86 1011.3
20260504002145 85 217 0.0 0.0 0.00 0.00 0.00 85 1011.2
20260504001642 85 217 0.0 0.0 0.00 0.00 0.00 84 1011.1
20260504001138 85 222 0.0 0.0 0.00 0.00 0.00 83 1010.9
20260504000636 85 184 0.0 0.0 0.00 0.00 0.00 83 1011.0
20260504000133 85 182 0.0 0.0 0.00 0.00 0.00 83 1011.1
20260503235631 85 280 0.0 0.9 0.00 0.00 0.00 83 1010.9
20260503235127 86 215 0.0 0.0 0.00 0.00 0.00 83 1010.7
20260503234625 86 3 0.9 0.9 0.00 0.00 0.00 80 1010.7
20260503234123 85 224 0.0 0.9 0.00 0.00 0.00 83 1010.7
20260503233620 84 202 0.0 0.9 0.00 0.00 0.00 86 1010.6
20260503233116 83 233 0.0 0.9 0.00 0.00 0.00 88 1010.3
20260503232613 83 278 0.0 0.9 0.00 0.00 0.00 89 1010.4
20260503232110 83 229 0.0 0.0 0.00 0.00 0.00 90 1010.5
20260503231608 82 229 0.0 0.0 0.00 0.00 0.00 91 1010.6
20260503231104 82 229 0.0 0.0 0.00 0.00 0.00 91 1010.6
20260503230601 82 229 0.0 0.0 0.00 0.00 0.00 91 1010.4
20260503230058 81 230 0.0 0.0 0.00 0.00 0.00 91 1010.0
20260503225555 81 230 0.0 0.0 0.00 0.00 0.00 92 1010.0
20260503225050 81 229 0.0 0.0 0.00 0.00 0.00 92 1010.1
20260503224548 81 230 0.0 0.0 0.00 0.00 0.00 93 1010.1
20260503224046 81 230 0.0 0.0 0.00 0.00 0.00 93 1009.7
20260503223544 81 229 0.0 0.0 0.00 0.00 0.00 93 1009.7
20260503223039 80 229 0.0 0.0 0.00 0.00 0.00 93 1009.4
20260503222537 80 229 0.0 0.0 0.00 0.00 0.00 93 1009.3
20260503220808 80 230 0.0 0.0 0.00 0.00 0.00 92 1009.5
20260503220306 80 230 0.0 0.0 0.00 0.00 0.00 92 1009.5
20260503215802 80 230 0.0 0.0 0.00 0.00 0.00 92 1009.5
20260503215259 80 229 0.0 0.0 0.00 0.00 0.00 93 1009.5
20260503214757 80 220 0.0 0.9 0.00 0.00 0.00 93 1009.3
20260503214254 80 220 0.0 0.0 0.00 0.00 0.00 92 1009.4
20260503213752 80 220 0.0 0.0 0.00 0.00 0.00 92 1009.5
20260503213249 80 295 0.0 0.0 0.00 0.00 0.00 92 1009.4
20260503212746 80 154 0.0 0.0 0.00 0.00 0.00 92 1009.4
20260503212243 80 153 0.0 0.0 0.00 0.00 0.00 92 1009.0
20260503211741 80 145 0.0 0.0 0.00 0.00 0.00 91 1009.3
20260503211237 81 146 0.0 0.0 0.00 0.00 0.00 90 1009.5
20260503210732 81 146 0.0 0.0 0.00 0.00 0.00 89 1009.2
20260503210230 81 143 0.0 0.9 0.00 0.00 0.00 88 1009.1
20260503205725 81 148 0.0 1.7 0.00 0.00 0.00 88 1009.0
20260503205221 80 162 0.0 0.9 0.00 0.00 0.00 90 1008.9
20260503204718 80 197 0.0 0.0 0.00 0.00 0.00 90 1009.1
20260503204216 80 197 0.0 0.0 0.00 0.00 0.00 90 1008.9
20260503203713 80 197 0.0 0.0 0.00 0.00 0.00 90 1009.0
20260503203211 80 197 0.0 0.0 0.00 0.00 0.00 90 1008.9
20260503202708 80 197 0.0 0.0 0.00 0.00 0.00 90 1009.0
20260503202206 80 197 0.0 0.0 0.00 0.00 0.00 90 1009.0
20260503201703 80 198 0.0 0.0 0.00 0.00 0.00 90 1008.8
20260503201200 80 197 0.0 0.0 0.00 0.00 0.00 90 1008.8
20260503200656 80 197 0.0 0.0 0.00 0.00 0.00 90 1008.9
20260503200153 80 197 0.0 0.0 0.00 0.00 0.00 91 1008.7
20260503195650 80 197 0.0 0.0 0.00 0.00 0.00 91 1008.6
20260503195147 80 197 0.0 0.0 0.00 0.00 0.00 91 1008.7
20260503194644 80 197 0.0 0.0 0.00 0.00 0.00 91 1008.6
20260503194139 80 198 0.0 0.0 0.00 0.00 0.00 91 1008.8
20260503193637 80 198 0.0 0.0 0.00 0.00 0.00 91 1008.6
20260503193132 80 198 0.0 0.0 0.00 0.00 0.00 91 1008.5
20260503192628 80 198 0.0 0.0 0.00 0.00 0.00 91 1008.3
20260503192123 80 198 0.0 0.0 0.00 0.00 0.00 91 1008.6
20260503191621 80 198 0.0 0.0 0.00 0.00 0.00 91 1008.5
20260503191118 80 198 0.0 0.0 0.00 0.00 0.00 91 1008.7
20260503190614 80 198 0.0 0.0 0.00 0.00 0.00 91 1008.8
20260503190111 80 198 0.0 0.0 0.00 0.00 0.00 91 1008.7
20260503185608 80 198 0.0 0.0 0.00 0.00 0.00 91 1008.8
20260503185108 80 198 0.0 0.0 0.00 0.00 0.00 91 1009.0
20260503184604 80 197 0.0 0.0 0.00 0.00 0.00 91 1009.0
20260503184100 80 197 0.0 0.0 0.00 0.00 0.00 91 1008.9
20260503183557 80 197 0.0 0.0 0.00 0.00 0.00 92 1009.0
20260503183054 80 197 0.0 0.0 0.00 0.00 0.00 92 1008.9
20260503182553 80 197 0.0 0.0 0.00 0.00 0.00 92 1008.8
20260503182050 80 197 0.0 0.0 0.00 0.00 0.00 92 1009.0
20260503181547 80 197 0.0 0.0 0.00 0.00 0.00 92 1008.8
20260503181043 80 197 0.0 0.0 0.00 0.00 0.00 91 1009.0
20260503180541 80 197 0.0 0.0 0.00 0.00 0.00 91 1009.1
20260503180038 80 197 0.0 0.0 0.00 0.00 0.00 91 1009.1
20260503175535 80 197 0.0 0.0 0.00 0.00 0.00 91 1009.2
20260503175032 80 197 0.0 0.0 0.00 0.00 0.00 91 1009.2
20260503174530 80 197 0.0 0.0 0.00 0.00 0.00 92 1009.2
20260503174026 80 197 0.0 0.0 0.00 0.00 0.00 92 1009.3
20260503173521 80 198 0.0 0.0 0.00 0.00 0.00 91 1009.1
20260503173017 80 198 0.0 0.0 0.00 0.00 0.00 91 1009.0
20260503172515 80 197 0.0 0.0 0.00 0.00 0.00 91 1009.1
20260503172012 80 197 0.0 0.0 0.00 0.00 0.00 91 1009.2
20260503171508 80 197 0.0 0.0 0.00 0.00 0.00 91 1009.3
20260503171006 80 198 0.0 0.0 0.00 0.00 0.00 91 1009.3
20260503170502 80 119 0.0 0.9 0.00 0.00 0.00 91 1009.3